TimeCST,TemperatureF,Dew PointF,Humidity,Sea Level PressureIn,VisibilityMPH,Wind Direction,Wind SpeedMPH,Gust SpeedMPH,PrecipitationIn,Events,Conditions,WindDirDegrees,DateUTC
12:15 AM,21.9,17.6,83,30.19,7.0,North,6.9,-,N/A,Snow,Light Snow,360,2014-02-09 06:15:00
12:35 AM,21.6,18.3,87,30.21,2.0,North,10.4,-,N/A,Snow,Light Snow,350,2014-02-09 06:35:00
12:55 AM,20.7,17.6,88,30.21,4.0,North,10.4,-,N/A,Snow,Light Snow,350,2014-02-09 06:55:00
1:15 AM,20.3,17.2,88,30.23,7.0,North,13.8,-,N/A,,Scattered Clouds,350,2014-02-09 07:15:00
1:35 AM,20.3,16.3,85,30.22,10.0,North,11.5,-,N/A,,Mostly Cloudy,360,2014-02-09 07:35:00
1:55 AM,19.6,15.3,83,30.21,10.0,North,10.4,-,N/A,,Scattered Clouds,360,2014-02-09 07:55:00
2:15 AM,18.5,14.5,85,30.21,10.0,North,10.4,-,N/A,,Scattered Clouds,360,2014-02-09 08:15:00
2:35 AM,17.2,13.5,85,30.23,10.0,North,8.1,-,N/A,,Scattered Clouds,350,2014-02-09 08:35:00
2:55 AM,16.3,12.7,86,30.23,10.0,North,9.2,-,N/A,,Clear,350,2014-02-09 08:55:00
3:15 AM,15.1,12.0,88,30.23,10.0,North,8.1,-,N/A,,Clear,360,2014-02-09 09:15:00
3:35 AM,16.0,13.1,88,30.22,10.0,North,9.2,-,N/A,,Clear,10,2014-02-09 09:35:00
3:55 AM,16.7,13.1,86,30.21,10.0,NNE,9.2,-,N/A,,Scattered Clouds,20,2014-02-09 09:55:00
4:15 AM,16.7,12.0,82,30.22,10.0,North,6.9,-,N/A,,Mostly Cloudy,10,2014-02-09 10:15:00
4:35 AM,16.5,11.3,80,30.23,10.0,North,8.1,-,N/A,,Overcast,360,2014-02-09 10:35:00
4:55 AM,16.7,10.9,78,30.24,10.0,North,9.2,-,N/A,,Overcast,360,2014-02-09 10:55:00
5:15 AM,16.7,10.8,77,30.24,10.0,North,6.9,-,N/A,,Overcast,10,2014-02-09 11:15:00
5:35 AM,17.1,10.6,76,30.23,10.0,North,10.4,-,N/A,,Overcast,10,2014-02-09 11:35:00
5:55 AM,17.1,10.4,75,30.24,10.0,North,9.2,-,N/A,,Overcast,10,2014-02-09 11:55:00
6:15 AM,17.1,10.6,76,30.23,10.0,NNE,8.1,-,N/A,,Overcast,20,2014-02-09 12:15:00
6:35 AM,16.7,10.4,76,30.23,10.0,NNE,9.2,-,N/A,,Mostly Cloudy,20,2014-02-09 12:35:00
6:55 AM,16.7,10.6,77,30.24,10.0,North,8.1,-,N/A,,Mostly Cloudy,10,2014-02-09 12:55:00
7:15 AM,16.7,10.6,77,30.25,10.0,NNE,11.5,-,N/A,,Overcast,30,2014-02-09 13:15:00
7:35 AM,16.7,10.2,76,30.26,10.0,NNE,9.2,-,N/A,,Overcast,20,2014-02-09 13:35:00
7:55 AM,16.5,8.6,71,30.27,10.0,North,11.5,16.1,N/A,,Overcast,10,2014-02-09 13:55:00
8:15 AM,16.0,8.6,73,30.30,10.0,North,15.0,-,N/A,,Overcast,360,2014-02-09 14:15:00
8:35 AM,15.4,8.8,75,30.30,10.0,North,11.5,-,N/A,,Overcast,360,2014-02-09 14:35:00
8:55 AM,15.3,8.6,75,30.31,10.0,North,13.8,-,N/A,,Overcast,350,2014-02-09 14:55:00
9:15 AM,14.7,8.4,76,30.31,10.0,North,16.1,-,N/A,,Overcast,360,2014-02-09 15:15:00
9:35 AM,14.4,7.7,75,30.32,10.0,North,16.1,-,N/A,,Overcast,10,2014-02-09 15:35:00
9:55 AM,14.5,7.7,74,30.32,10.0,North,12.7,-,N/A,,Overcast,360,2014-02-09 15:55:00
10:15 AM,13.8,7.2,75,30.32,7.0,North,17.3,-,N/A,Snow,Light Snow,360,2014-02-09 16:15:00
10:35 AM,12.7,6.6,77,30.33,5.0,North,18.4,-,N/A,Snow,Light Snow,360,2014-02-09 16:35:00
10:55 AM,12.6,5.9,75,30.34,3.0,North,16.1,-,N/A,Snow,Light Snow,360,2014-02-09 16:55:00
11:15 AM,11.7,4.5,73,30.33,2.0,North,16.1,-,N/A,Snow,Light Snow,10,2014-02-09 17:15:00
11:35 AM,11.8,4.8,73,30.34,5.0,North,16.1,19.6,N/A,,Haze,360,2014-02-09 17:35:00
11:55 AM,11.3,4.5,74,30.35,10.0,North,13.8,-,N/A,,Overcast,360,2014-02-09 17:55:00
12:15 PM,11.8,4.6,73,30.36,10.0,North,15.0,18.4,N/A,Snow,Light Snow,350,2014-02-09 18:15:00
12:30 PM,11.8,5.0,74,30.35,10.0,North,11.5,-,N/A,,Overcast,360,2014-02-09 18:30:00
12:55 PM,11.7,4.3,72,30.35,10.0,North,11.5,-,N/A,,Overcast,350,2014-02-09 18:55:00
1:15 PM,11.3,4.8,75,30.35,2.0,North,11.5,-,N/A,Snow,Light Snow,10,2014-02-09 19:15:00
1:35 PM,11.7,5.7,77,30.34,1.5,NNE,10.4,-,N/A,Snow,Light Snow,20,2014-02-09 19:35:00
1:55 PM,11.3,5.4,77,30.34,2.0,North,10.4,-,N/A,Snow,Light Snow,360,2014-02-09 19:55:00
2:15 PM,11.1,4.6,75,30.35,7.0,North,11.5,-,N/A,Snow,Light Snow,360,2014-02-09 20:15:00
2:35 PM,11.3,4.3,73,30.33,10.0,North,10.4,-,N/A,Snow,Light Snow,10,2014-02-09 20:35:00
2:55 PM,11.7,4.1,72,30.32,5.0,North,9.2,-,N/A,Snow,Light Snow,10,2014-02-09 20:55:00
3:15 PM,11.8,5.0,74,30.33,7.0,North,10.4,-,N/A,,Overcast,360,2014-02-09 21:15:00
3:35 PM,12.0,5.4,75,30.32,7.0,NNE,10.4,-,N/A,,Overcast,20,2014-02-09 21:35:00
3:55 PM,11.8,4.1,71,30.32,10.0,NNE,10.4,-,N/A,,Overcast,30,2014-02-09 21:55:00
4:15 PM,11.8,4.5,72,30.33,10.0,NNE,9.2,-,N/A,,Overcast,30,2014-02-09 22:15:00
4:35 PM,11.8,4.8,73,30.34,10.0,NNE,8.1,-,N/A,,Overcast,30,2014-02-09 22:35:00
4:55 PM,11.8,4.8,73,30.33,10.0,NNE,9.2,-,N/A,,Overcast,30,2014-02-09 22:55:00
5:15 PM,11.7,4.1,72,30.35,10.0,NNE,10.4,-,N/A,,Overcast,30,2014-02-09 23:15:00
5:35 PM,11.7,4.1,72,30.36,10.0,NNE,6.9,-,N/A,,Overcast,30,2014-02-09 23:35:00
5:55 PM,11.3,4.1,73,30.36,10.0,NNE,8.1,-,N/A,,Overcast,30,2014-02-09 23:55:00
6:15 PM,11.3,4.5,74,30.37,10.0,NNE,6.9,-,N/A,,Overcast,30,2014-02-10 00:15:00
6:35 PM,11.1,3.7,72,30.37,10.0,NE,5.8,-,N/A,,Overcast,40,2014-02-10 00:35:00
6:55 PM,11.1,2.8,69,30.37,10.0,NNE,8.1,-,N/A,,Overcast,30,2014-02-10 00:55:00
7:15 PM,10.9,2.3,68,30.37,10.0,NNE,8.1,-,N/A,,Overcast,30,2014-02-10 01:15:00
7:35 PM,10.9,2.3,68,30.38,10.0,NNE,9.2,-,N/A,,Overcast,30,2014-02-10 01:35:00
7:55 PM,11.1,2.7,69,30.38,10.0,NNE,8.1,-,N/A,,Overcast,30,2014-02-10 01:55:00
8:15 PM,11.1,2.3,68,30.40,10.0,North,8.1,-,N/A,,Overcast,10,2014-02-10 02:15:00
8:35 PM,11.1,2.7,69,30.39,10.0,NNE,9.2,-,N/A,,Overcast,30,2014-02-10 02:35:00
8:55 PM,11.1,2.3,68,30.39,10.0,North,9.2,-,N/A,,Overcast,10,2014-02-10 02:55:00
9:15 PM,11.1,2.3,68,30.40,10.0,NNE,10.4,-,N/A,,Overcast,20,2014-02-10 03:15:00
9:35 PM,11.1,2.7,69,30.41,10.0,North,8.1,-,N/A,,Overcast,10,2014-02-10 03:35:00
9:55 PM,11.3,2.3,67,30.40,10.0,North,9.2,-,N/A,,Overcast,10,2014-02-10 03:55:00
10:15 PM,11.3,2.1,67,30.41,10.0,NNE,8.1,-,N/A,,Overcast,30,2014-02-10 04:15:00
10:35 PM,11.3,2.1,67,30.41,10.0,NNE,6.9,-,N/A,,Overcast,20,2014-02-10 04:35:00
10:55 PM,11.3,2.1,67,30.41,10.0,NNE,6.9,-,N/A,,Overcast,30,2014-02-10 04:55:00
11:15 PM,11.3,2.1,67,30.41,10.0,NNE,8.1,-,N/A,,Overcast,30,2014-02-10 05:15:00
11:35 PM,11.3,2.1,67,30.42,10.0,NNE,6.9,-,N/A,,Overcast,30,2014-02-10 05:35:00
11:55 PM,11.3,2.3,67,30.42,10.0,NNE,5.8,-,N/A,,Overcast,20,2014-02-10 05:55:00